星链-3343 (STARLINK-3343 )

导读

STARLINK-3343是美国太空探索技术公司Starlink卫星互联网项目的组成卫星,于2022年1月6日发射升空,属于低轨通信卫星。它旨在为全球提供高速低延迟互联网服务,组网后可覆盖偏远地区,支撑全球网络接入需求,是SpaceX星链大规模星座部署中的一颗重要节点卫星。

Basic Information
目录编号:
50822
目录名称:
STARLINK-3343
国际标识:
2022-001V
轨道中心:
EARTH
卫星名称:
星链-3343
卫星全名:
星链-3343 (STARLINK-3343 )
卫星状态:
在轨 (已飞行1710 天)
发射日期:
2022-01-06 UTC
国别 :
美国 (US)
星等 :
--
This satellite is enrolled in the Space Conjunction Data Service (SCDS) and the current flight risk assessment level is: No High Risk
Orbit Information
数据来源 国际轨道数据
星历时间: 2026-09-12T01:07:40+0800
14小时前
查看轨道信息
半长轴: 6848.871km
偏心率: 0.0001122
轨道倾角: 53.161°
近地点辐角 94.882°
升交点赤经 44.678°
平近点角 265.231°
近地点: 469.965km
远地点: 471.503km
周期: 94.013分钟
每日圈数: 15.317023
Detailed Information
固有亮度:
5
最大亮度:
2.5
卫星平台:
Starlink v1.5
覆盖范围:
全球
运营商:
太空探索技术公司
运营商所在国:
美国
制造商(研发单位):
太空探索技术公司
制造商所在国:
美国
使用方式:
暂无
Satellite Introduction
星链(Starlink)计划是由太空探索技术公司(SpaceX)提出的一个巨型低轨卫星互联网星座项目,计划在2019年至2024年间在太空搭建由约1.2万颗卫星组成的“星链”网络,其中1584颗将部署在地球上空550千米处的近地轨道,并从2020年开始工作。该卫星仍在工作。
2D Orbit Map
3D Orbit Map
Orbit Altitude Analysis Chart
Orbit Inclination Analysis Chart
Orbit Comprehensive Analysis Chart
View Comprehensive Chart
Conjunction Data List
Event ID Objects TCA Miss Dist (km) Collision Risk Probability Collision Risk Index (CRI) Action
CDM_260914-103705-082206-300322
2026-09-14T
10:37:00+0000
2.197 km
极远距离
1.670235E-6 低风险 0.39
CDM_260914-104605-082205-701421
OBJECT L (57014)
2026-09-14T
10:46:07+0000
2.881 km
极远距离
8.722522E-7 极低风险 0.34
Miss Distance Evolution Trend with All Objects
Collision Probability Evolution Trend with All Objects